Time,TemperatureF,DewpointF,PressureIn,WindDirection,WindDirectionDegrees,WindSpeedMPH,WindSpeedGustMPH,Humidity,HourlyPrecipIn,Conditions,Clouds,dailyrainin,SolarRadiationWatts/m^2,SoftwareType,DateUTC
2013-09-18 00:00:00,49.0,46.0,-100.00,SSW,202,1.0,-999.0,90,-99.99,,,-99.99,0.000000,,2013-09-18 04:00:00,
2013-09-18 00:44:00,49.0,46.0,-100.00,SSW,202,1.0,-999.0,90,-99.99,,,-99.99,0.000000,,2013-09-18 04:44:00,
2013-09-18 00:54:00,49.0,46.0,-100.00,SSW,202,1.0,-999.0,90,-99.99,,,-99.99,0.000000,,2013-09-18 04:54:00,
2013-09-18 01:00:00,51.0,44.0,-100.00,South,180,2.0,-999.0,75,-99.99,,,-99.99,0.000000,,2013-09-18 05:00:00,
2013-09-18 01:43:00,51.0,44.0,-100.00,South,180,2.0,-999.0,75,-99.99,,,-99.99,0.000000,,2013-09-18 05:43:00,
2013-09-18 01:53:00,51.0,44.0,-100.00,South,180,2.0,-999.0,75,-99.99,,,-99.99,0.000000,,2013-09-18 05:53:00,
2013-09-18 02:00:00,55.0,44.0,-100.00,SSE,157,4.0,-999.0,66,-99.99,,,-99.99,0.000000,,2013-09-18 06:00:00,
2013-09-18 02:42:00,55.0,44.0,-100.00,SSE,157,4.0,-999.0,66,-99.99,,,-99.99,0.000000,,2013-09-18 06:42:00,
2013-09-18 02:52:00,55.0,44.0,-100.00,SSE,157,4.0,-999.0,66,-99.99,,,-99.99,0.000000,,2013-09-18 06:52:00,
2013-09-18 03:00:00,54.0,45.0,-100.00,SSE,157,3.0,-999.0,69,-99.99,,,-99.99,0.000000,,2013-09-18 07:00:00,
2013-09-18 03:42:00,54.0,45.0,-100.00,SSE,157,3.0,-999.0,69,-99.99,,,-99.99,0.000000,,2013-09-18 07:42:00,
2013-09-18 03:52:00,54.0,45.0,-100.00,SSE,157,3.0,-999.0,69,-99.99,,,-99.99,0.000000,,2013-09-18 07:52:00,
2013-09-18 04:00:00,55.0,46.0,-100.00,South,180,4.0,-999.0,72,-99.99,,,-99.99,0.000000,,2013-09-18 08:00:00,
2013-09-18 04:42:00,55.0,46.0,-100.00,South,180,4.0,-999.0,72,-99.99,,,-99.99,0.000000,,2013-09-18 08:42:00,
2013-09-18 04:52:00,55.0,46.0,-100.00,South,180,4.0,-999.0,72,-99.99,,,-99.99,0.000000,,2013-09-18 08:52:00,
2013-09-18 05:00:00,56.0,47.0,-100.00,South,180,5.0,-999.0,71,-99.99,,,-99.99,0.000000,,2013-09-18 09:00:00,
2013-09-18 05:43:00,56.0,47.0,-100.00,South,180,5.0,-999.0,71,-99.99,,,-99.99,0.000000,,2013-09-18 09:43:00,
2013-09-18 05:53:00,56.0,47.0,-100.00,South,180,5.0,-999.0,71,-99.99,,,-99.99,0.000000,,2013-09-18 09:53:00,
2013-09-18 06:00:00,56.0,46.0,-100.00,South,180,6.0,-999.0,70,-99.99,,,-99.99,0.000000,,2013-09-18 10:00:00,
2013-09-18 06:43:00,56.0,46.0,-100.00,South,180,6.0,-999.0,70,-99.99,,,-99.99,0.000000,,2013-09-18 10:43:00,
2013-09-18 06:53:00,56.0,46.0,-100.00,South,180,6.0,-999.0,70,-99.99,,,-99.99,0.000000,,2013-09-18 10:53:00,
2013-09-18 07:00:00,56.0,46.0,-100.00,South,180,5.0,-999.0,69,-99.99,,,-99.99,0.000000,,2013-09-18 11:00:00,
2013-09-18 07:42:00,56.0,46.0,-100.00,South,180,5.0,-999.0,69,-99.99,,,-99.99,0.000000,,2013-09-18 11:42:00,
2013-09-18 07:52:00,56.0,46.0,-100.00,South,180,5.0,-999.0,69,-99.99,,,-99.99,0.000000,,2013-09-18 11:52:00,
2013-09-18 08:00:00,57.0,47.0,-100.00,South,180,4.0,-999.0,70,-99.99,,,-99.99,8.120000,,2013-09-18 12:00:00,
2013-09-18 08:43:00,57.0,47.0,-100.00,South,180,4.0,-999.0,70,-99.99,,,-99.99,8.120000,,2013-09-18 12:43:00,
2013-09-18 08:52:00,57.0,47.0,-100.00,South,180,4.0,-999.0,70,-99.99,,,-99.99,8.120000,,2013-09-18 12:52:00,
2013-09-18 23:00:00,68.0,58.0,-100.00,SSE,157,5.0,-999.0,70,-99.99,,,-99.99,0.000000,,2013-09-19 03:00:00,